IRIDIUM 920

Last updated on Wed Nov 29 2017 00:19:02 GMT+0000 (Coordinated Universal Time)

1 24871U 97034C 17332.35476573 .00000123 00000-0 33071-4 0 9995 2 24871 86.3955 297.1578 0012569 151.0330 209.1569 14.39501269 69978
UTC large
Height (km)
Speed (km/s)
/
Latitude / Longitude
Inclination (degrees)
Orbital Period (minutes)
Azimuth
Elevation
Range (km)
Doppler Factor

Next 0 passes for location: London (51.5072 / 0.1276)

Sorry there are no passes over London.